weather.gov     
National Weather Service

Regional Weather Roundup
NWS Homepage
This page is being discontinued on March 12, 2014.
The same data is available at this site. Please update your bookmarks.
Thank you, and we apologize for the inconvenience.
Please send an email to SR-SRH.Webmaster@noaa.gov with any concerns.


Current Version
Previous Version:    01  02  03  04  05  06  07  08  09  10  11  12  13  14  15  16  17  18  19  20  21  22  23  24  25  26  27  28  29  30  
   31  32  33  34  35  36  37  38  39  40  41  42  43  44  45  46  47  48  49  50  51  52  53  54  55  56  57  58  59  60  
[Printable]
500
ASUS44 KFWD 211215
RWRTX
NORTH TEXAS HOURLY WEATHER ROUNDUP
NATIONAL WEATHER SERVICE FORT WORTH TX
700 AM CDT SUN SEP 21 2014

NOTE: "FAIR" INDICATES FEW OR NO CLOUDS BELOW 12,000 FEET WITH NO
SIGNIFICANT WEATHER AND/OR OBSTRUCTIONS TO VISIBILITY.

TXZ118-119-211300-
DALLAS/FORT WORTH METROPLEX

CITY           SKY/WX    TMP DP  RH WIND       PRES   REMARKS
DFW AIRPORT    CLEAR     72  64  76 N3        30.06R
6HR MIN TEMP:  71; 6HR MAX TEMP:  78;

DALLAS LOVE    CLEAR     71  66  84 E5        30.06R
6HR MIN TEMP:  70; 6HR MAX TEMP:  79;

FTW MEACHAM    CLEAR     72  64  76 CALM      30.06R
6HR MIN TEMP:  70; 6HR MAX TEMP:  77;

DAL-EXECUTIVE  CLEAR     71  64  78 CALM      30.06R
6HR MIN TEMP:  70; 6HR MAX TEMP:  76;

FTW-ALLIANCE   PTCLDY    63  61  93 CALM      30.06R
6HR MIN TEMP:  62; 6HR MAX TEMP:  73;

FTW-NAS-JRB    CLEAR     73  64  73 NW5       30.11R
6HR MIN TEMP:  73; 6HR MAX TEMP:  80;

FTW-SPINKS     CLEAR     64  63  94 CALM      30.07S
ARLINGTON      CLEAR     66  63  90 CALM      30.06R
6HR MIN TEMP:  66; 6HR MAX TEMP:  70;

GRAND PRAIRIE  CLEAR     70  63  78 MISG      30.07R
ADDISON        CLEAR     72  64  78 CALM      30.07R
MESQUITE       CLEAR     66  64  94 N3        30.06R
LANCASTER      CLEAR     64  60  86 CALM      30.07R
6HR MIN TEMP:  64; 6HR MAX TEMP:  70;

$$

TXZ091>094-102>105-117-120-121-131>134-211300-
NORTH CENTRAL TEXAS

CITY           SKY/WX    TMP DP  RH WIND       PRES   REMARKS
SHRMAN/DENISON CLEAR     68  64  84 CALM      30.08R
6HR MIN TEMP:  67; 6HR MAX TEMP:  76;

GAINESVILLE    CLEAR     66  63  90 CALM      30.10R
6HR MIN TEMP:  66; 6HR MAX TEMP:  73;

BOWIE          CLEAR     65  63  93 CALM      30.09R
6HR MIN TEMP:  64; 6HR MAX TEMP:  70;

BRIDGEPORT     CLEAR     63  63 100 CALM      30.10R
6HR MIN TEMP:  63; 6HR MAX TEMP:  74;

DECATUR        CLEAR     72  63  73 SW5       30.09R
6HR MIN TEMP:  70; 6HR MAX TEMP:  77;

DENTON         CLEAR     64  62  93 NW3       30.07R
6HR MIN TEMP:  64; 6HR MAX TEMP:  72;

MCKINNEY       CLEAR     65  63  93 N3        30.07R
6HR MIN TEMP:  65; 6HR MAX TEMP:  72;

GREENVILLE     CLEAR     66  63  88 CALM      30.07R
ROCKWALL       CLEAR     68  66  93 E3        30.06R
6HR MIN TEMP:  68; 6HR MAX TEMP:  76;

TERRELL        CLEAR     68  64  87 N3        30.07R
6HR MIN TEMP:  67; 6HR MAX TEMP:  72;

WAXAHACHIE     CLEAR     67  63  87 CALM      30.08R
6HR MIN TEMP:  65; 6HR MAX TEMP:  70;

CLEBURNE       CLEAR     70  66  88 CALM      30.09R
GRANBURY       CLEAR     66  64  90 CALM      30.09R
6HR MIN TEMP:  66; 6HR MAX TEMP:  74;

$$

TXZ083>090-098>101-113>116-127>130-139>142-154-155-211300-
WESTERN NORTH TEXAS

CITY           SKY/WX    TMP DP  RH WIND       PRES   REMARKS
WICHITA FALLS  PTCLDY    70  66  87 S5        30.07R
6HR MIN TEMP:  70; 6HR MAX TEMP:  77;

WF-KICKAPOO    PTCLDY    70  65  86 CALM      30.09R
6HR MIN TEMP:  70; 6HR MAX TEMP:  75;

VERNON         MOCLDY    72  69  91 CALM      30.10R
6HR MIN TEMP:  71; 6HR MAX TEMP:  80;

ABILENE        CLEAR     70  68  93 SE6       30.10R
6HR MIN TEMP:  70; 6HR MAX TEMP:  74;

ABILENE-DYESS  PTCLDY    69  61  75 CALM      30.10R
6HR MIN TEMP:  69; 6HR MAX TEMP:  75; 6HR PCP: TRACE;

BRECKENRIDGE   CLEAR     71  66  85 CALM      30.09R
6HR MIN TEMP:  71; 6HR MAX TEMP:  77;

GRAHAM         CLEAR     67  63  87 CALM      30.08R
6HR MIN TEMP:  67; 6HR MAX TEMP:  72;

MINERAL WELLS  CLEAR     66  63  90 CALM      30.07R
6HR MIN TEMP:  66; 6HR MAX TEMP:  75;

STEPHENVILLE   MOCLDY    70  64  82 CALM      30.11R
6HR MIN TEMP:  67; 6HR MAX TEMP:  74;

COMANCHE       MOCLDY    68  68 100 CALM      30.09R FOG
6HR MIN TEMP:  68; 6HR MAX TEMP:  73; 6HR PCP:  0.01;

BROWNWOOD      CLOUDY    70  68  94 CALM      30.09R
COLEMAN        CLOUDY    71  69  95 NE3       30.11R FOG
6HR MIN TEMP:  70; 6HR MAX TEMP:  74;

BRADY          CLOUDY    70  70 100 CALM      30.09R
$$

TXZ143>147-156>162-174-175-211300-
CENTRAL TEXAS

CITY           SKY/WX    TMP DP  RH WIND       PRES   REMARKS
WACO           CLEAR     68  66  93 N3        30.05R
6HR MIN TEMP:  67; 6HR MAX TEMP:  71;

WACO-TSTC      CLEAR     68  68 100 CALM      30.05
WACO-MCGREGOR  CLEAR     66  61  82 N3        30.07R
6HR MIN TEMP:  66; 6HR MAX TEMP:  72;

HILLSBORO      CLEAR     69  64  82 CALM      30.06R
6HR MIN TEMP:  68; 6HR MAX TEMP:  75;

CORSICANA      CLEAR     68  65  90 CALM      30.06R
6HR MIN TEMP:  67; 6HR MAX TEMP:  75;

MEXIA          CLEAR     69  66  90 CALM      30.04S
6HR MIN TEMP:  69; 6HR MAX TEMP:  73;

HEARNE         CLEAR     68  67  97 CALM      30.04R
6HR MIN TEMP:  68; 6HR MAX TEMP:  74;

CAMERON        CLEAR     70  69  96 CALM      30.04R
6HR MIN TEMP:  70; 6HR MAX TEMP:  74;

TEMPLE         CLEAR     70  63  78 CALM      30.05R
6HR MIN TEMP:  70; 6HR MAX TEMP:  73;

KILLEEN        PTCLDY    72  68  88 NW3       30.06R
KILLEEN-SKYLRK CLEAR     70  64  83 CALM      30.06R
6HR MIN TEMP:  70; 6HR MAX TEMP:  73;

FORT HOOD      PTCLDY    74  70  87 CALM      30.06R
6HR MIN TEMP:  72; 6HR MAX TEMP:  76;

GATESVILLE     CLEAR     70  66  88 CALM      30.09R
HAMILTON       PTCLDY    70  69  97 E9        30.09R
6HR MIN TEMP:  69; 6HR MAX TEMP:  73;

LAMPASAS       MOCLDY    71  69  94 CALM      30.07R
6HR MIN TEMP:  71; 6HR MAX TEMP:  73;

$$

TXZ095>097-106>112-122>126-135>138-148>153-164>167-211300-
EAST TEXAS

CITY           SKY/WX    TMP DP  RH WIND       PRES   REMARKS
PARIS          CLEAR     70  63  78 N3        30.06R
6HR MIN TEMP:  70; 6HR MAX TEMP:  73;

SULPHUR SPRNGS CLEAR     69  67  92 CALM      30.08R
6HR MIN TEMP:  68; 6HR MAX TEMP:  74;

MOUNT PLEASANT   N/A     66  65  99 CALM      30.07R VSB 3/4
6HR MIN TEMP:  65; 6HR MAX TEMP:  71;

GILMER         CLEAR     68  68 100 CALM      30.07R FOG
MINEOLA        CLEAR     66  66 100 CALM      30.07R
TYLER          CLEAR     69  65  86 CALM      30.05R
6HR MIN TEMP:  69; 6HR MAX TEMP:  74;

LONGVIEW       CLEAR     67  64  90 CALM      30.04R
6HR MIN TEMP:  67; 6HR MAX TEMP:  72;

MARSHALL       CLEAR     68  65  90 CALM      30.06R
6HR MIN TEMP:  68; 6HR MAX TEMP:  73;

ATHENS         CLEAR     64  63  94 CALM      30.05R
PALESTINE      CLEAR     67  66  97 CALM      30.05R
JACKSONVILLE   CLEAR     71  67  89 CALM      30.07R
HENDERSON      CLEAR     66  66 100 CALM      30.06R
6HR MIN TEMP:  65; 6HR MAX TEMP:  69;

NACOGDOCHES    CLEAR     64  61  88 CALM      30.05R
6HR MIN TEMP:  64; 6HR MAX TEMP:  68;

LUFKIN         CLEAR     69  65  86 CALM      30.04R FOG
6HR MIN TEMP:  69; 6HR MAX TEMP:  73;

$$

SUPPLEMENTAL OBSERVATIONS (CENTRAL)

CITY           SKY/WX    TMP DP  RH WIND       PRES   REMARKS
LAKE TEXOMA      N/A     73  64  73 S3          N/A
CADDO GRASSLND   N/A     66  63  88 CALM        N/A
PAT MAYSE LAKE   N/A     68  66  94 NW1         N/A
GREENVILLE       N/A     66  63  88 SW1         N/A
CEDAR HILL       N/A     66  61  82 CALM        N/A
ATHENS           N/A     66  63  88 CALM        N/A
PALESTINE        N/A     64  63  94 CALM        N/A
LAKE LIMESTONE   N/A     70  66  88 CALM        N/A
MCGREGOR         N/A     66  63  88 CALM        N/A




U.S. Dept. of Commerce
NOAA National Weather Service
1325 East West Highway
Silver Spring, MD 20910
E-mail: w-nws.webmaster@noaa.gov
Page last modified: May 16, 2007
NATIONAL WEATHER SERVICE: for Safety, for Work, for Fun - FOR LIFE